Previsão horária em Plonne

Hoje, 5 Março, Sexta-feira

Tempo Temperatura Precipitação Vento Pressão Humidade
00:00 -3°C° 0 mm 2 m/s 758 mmHg 83%
01:00 -3°C° 0 mm 2 m/s 758 mmHg 84%
02:00 -3°C° 0 mm 2 m/s 758 mmHg 83%
03:00 -3°C° 0 mm 2 m/s 758 mmHg 82%
04:00 -3°C° 0 mm 2 m/s 758 mmHg 81%
05:00 -3°C° 0 mm 2 m/s 759 mmHg 81%
06:00 -3°C° 0 mm 2 m/s 759 mmHg 81%
07:00 -2°C° 0 mm 2 m/s 760 mmHg 81%
08:00 -1°C° 0.2 mm 2 m/s 760 mmHg 73%
09:00 0°C° 0.2 mm 3 m/s 760 mmHg 65%
10:00 +1°C° 0.2 mm 3 m/s 760 mmHg 57%
11:00 +1°C° 0 mm 3 m/s 761 mmHg 53%
12:00 +2°C° 0 mm 3 m/s 761 mmHg 49%
13:00 +2°C° 0 mm 3 m/s 761 mmHg 44%
14:00 +2°C° 0 mm 3 m/s 761 mmHg 48%
15:00 0°C° 0 mm 4 m/s 761 mmHg 52%
16:00 0°C° 0 mm 4 m/s 762 mmHg 57%
17:00 -1°C° 0.1 mm 4 m/s 762 mmHg 64%
18:00 -2°C° 0.1 mm 4 m/s 762 mmHg 72%
19:00 -3°C° 0.1 mm 4 m/s 763 mmHg 79%
20:00 -2°C° 0 mm 3 m/s 763 mmHg 79%
21:00 -4°C° 0 mm 3 m/s 764 mmHg 79%
22:00 -4°C° 0 mm 3 m/s 764 mmHg 80%
23:00 -4°C° 0 mm 3 m/s 764 mmHg 79%

Amanhã, 6 Março, Sábado

Tempo Temperatura Precipitação Vento Pressão Humidade
00:00 -4°C° 0 mm 3 m/s 765 mmHg 78%
01:00 -3°C° 0 mm 2 m/s 765 mmHg 78%
02:00 -3°C° 0 mm 2 m/s 765 mmHg 77%
03:00 -3°C° 0 mm 2 m/s 765 mmHg 76%
04:00 -4°C° 0 mm 3 m/s 765 mmHg 76%
05:00 -3°C° 0 mm 2 m/s 765 mmHg 75%
06:00 -3°C° 0 mm 2 m/s 765 mmHg 74%
07:00 -3°C° 0 mm 2 m/s 766 mmHg 73%
08:00 -2°C° 0 mm 2 m/s 765 mmHg 67%
09:00 0°C° 0 mm 3 m/s 765 mmHg 62%
10:00 0°C° 0 mm 4 m/s 765 mmHg 57%
11:00 +1°C° 0 mm 4 m/s 765 mmHg 54%
12:00 +1°C° 0 mm 5 m/s 765 mmHg 52%
13:00 +2°C° 0 mm 5 m/s 764 mmHg 49%
14:00 +2°C° 0 mm 5 m/s 763 mmHg 51%
15:00 +2°C° 0 mm 5 m/s 763 mmHg 52%
16:00 +1°C° 0 mm 5 m/s 762 mmHg 54%
17:00 +1°C° 0 mm 6 m/s 762 mmHg 65%
18:00 -1°C° 0 mm 7 m/s 761 mmHg 75%
19:00 -2°C° 0 mm 7 m/s 760 mmHg 86%
20:00 -2°C° 0 mm 7 m/s 760 mmHg 85%
21:00 -2°C° 0 mm 8 m/s 759 mmHg 84%
22:00 -1°C° 0 mm 8 m/s 759 mmHg 84%
23:00 -1°C° 0 mm 8 m/s 758 mmHg 84%

Depois de amanhã, 7 Março, Domingo

Tempo Temperatura Precipitação Vento Pressão Humidade
00:00 -1°C° 0 mm 9 m/s 758 mmHg 84%
01:00 -1°C° 0 mm 9 m/s 757 mmHg 84%
02:00 -1°C° 0 mm 9 m/s 757 mmHg 86%
03:00 -1°C° 0 mm 9 m/s 756 mmHg 88%
04:00 -1°C° 0 mm 9 m/s 756 mmHg 90%
05:00 -2°C° 0.4 mm 8 m/s 756 mmHg 92%
06:00 -2°C° 0.4 mm 6 m/s 756 mmHg 94%
07:00 -2°C° 0.4 mm 4 m/s 756 mmHg 95%
08:00 -2°C° 0.5 mm 4 m/s 756 mmHg 95%
09:00 -1°C° 0.5 mm 4 m/s 756 mmHg 94%
10:00 -1°C° 0.5 mm 4 m/s 756 mmHg 93%
11:00 -1°C° 0.6 mm 4 m/s 756 mmHg 93%
12:00 -1°C° 0.6 mm 5 m/s 755 mmHg 93%
13:00 -1°C° 0.6 mm 5 m/s 755 mmHg 93%
14:00 -1°C° 0.2 mm 5 m/s 755 mmHg 85%
15:00 -1°C° 0.2 mm 5 m/s 755 mmHg 77%
16:00 -1°C° 0.2 mm 5 m/s 755 mmHg 69%
17:00 -2°C° 0 mm 4 m/s 756 mmHg 72%
18:00 -3°C° 0 mm 4 m/s 756 mmHg 74%
19:00 -3°C° 0 mm 4 m/s 756 mmHg 77%
20:00 -4°C° 0 mm 4 m/s 756 mmHg 77%
21:00 -4°C° 0 mm 3 m/s 756 mmHg 78%
22:00 -4°C° 0 mm 3 m/s 756 mmHg 78%
23:00 -4°C° 0 mm 3 m/s 757 mmHg 78%

8 Março, Segunda-feira

Tempo Temperatura Precipitação Vento Pressão Humidade
00:00 -4°C° 0 mm 3 m/s 757 mmHg 78%
01:00 -4°C° 0 mm 3 m/s 757 mmHg 77%
02:00 -4°C° 0 mm 3 m/s 757 mmHg 77%
03:00 -4°C° 0 mm 3 m/s 757 mmHg 78%
04:00 -4°C° 0 mm 3 m/s 757 mmHg 78%
05:00 -4°C° 0 mm 3 m/s 757 mmHg 79%
06:00 -3°C° 0 mm 4 m/s 758 mmHg 79%
07:00 -3°C° 0 mm 4 m/s 758 mmHg 80%
08:00 -4°C° 0.1 mm 5 m/s 759 mmHg 76%
09:00 -2°C° 0.1 mm 5 m/s 759 mmHg 72%
10:00 -2°C° 0.1 mm 6 m/s 759 mmHg 68%
11:00 -2°C° 0.1 mm 6 m/s 760 mmHg 68%
12:00 -2°C° 0.1 mm 6 m/s 760 mmHg 67%
13:00 -2°C° 0.1 mm 6 m/s 760 mmHg 67%
14:00 -3°C° 0 mm 6 m/s 761 mmHg 68%
15:00 -3°C° 0 mm 6 m/s 761 mmHg 69%
16:00 -2°C° 0 mm 5 m/s 761 mmHg 70%
17:00 -3°C° 0 mm 4 m/s 761 mmHg 74%
18:00 -4°C° 0 mm 4 m/s 762 mmHg 77%
19:00 -5°C° 0 mm 3 m/s 762 mmHg 81%
20:00 -4°C° 0 mm 2 m/s 762 mmHg 81%
21:00 -4°C° 0 mm 2 m/s 763 mmHg 80%
22:00 -4°C° 0 mm 2 m/s 763 mmHg 80%
23:00 -2°C° 0 mm 1 m/s 763 mmHg 79%

9 Março, Terça-feira

Tempo Temperatura Precipitação Vento Pressão Humidade
00:00 -2°C° 0 mm 1 m/s 763 mmHg 79%
01:00 -2°C° 0 mm 1 m/s 763 mmHg 78%
02:00 -2°C° 0 mm 1 m/s 763 mmHg 78%
03:00 -2°C° 0 mm 1 m/s 763 mmHg 78%
04:00 -2°C° 0 mm 1 m/s 763 mmHg 77%
05:00 -2°C° 0 mm 1 m/s 763 mmHg 78%
06:00 -4°C° 0 mm 2 m/s 763 mmHg 78%
07:00 -4°C° 0 mm 2 m/s 763 mmHg 78%
08:00 -3°C° 0 mm 2 m/s 763 mmHg 72%
09:00 -2°C° 0 mm 2 m/s 763 mmHg 65%
10:00 -1°C° 0 mm 3 m/s 763 mmHg 59%
11:00 -1°C° 0 mm 3 m/s 763 mmHg 57%
12:00 0°C° 0 mm 3 m/s 763 mmHg 54%
13:00 +1°C° 0 mm 3 m/s 763 mmHg 52%
14:00 +1°C° 0 mm 3 m/s 762 mmHg 53%
15:00 0°C° 0 mm 3 m/s 762 mmHg 55%
16:00 0°C° 0 mm 3 m/s 761 mmHg 57%
17:00 -1°C° 0 mm 3 m/s 761 mmHg 62%
18:00 -1°C° 0 mm 3 m/s 761 mmHg 67%
19:00 -3°C° 0 mm 4 m/s 761 mmHg 72%
20:00 -3°C° 0 mm 4 m/s 761 mmHg 71%
21:00 -3°C° 0 mm 4 m/s 760 mmHg 70%
22:00 -4°C° 0 mm 5 m/s 760 mmHg 68%
23:00 -4°C° 0 mm 5 m/s 760 mmHg 70%

10 Março, Quarta-feira

Tempo Temperatura Precipitação Vento Pressão Humidade
00:00 -4°C° 0 mm 5 m/s 759 mmHg 71%
01:00 -4°C° 0 mm 5 m/s 759 mmHg 72%
02:00 -2°C° 0.1 mm 5 m/s 758 mmHg 80%
03:00 -2°C° 0.1 mm 5 m/s 758 mmHg 88%
04:00 -2°C° 0.1 mm 5 m/s 757 mmHg 97%
05:00 -1°C° 0.1 mm 4 m/s 757 mmHg 97%
06:00 -1°C° 0.1 mm 4 m/s 757 mmHg 97%
07:00 0°C° 0.1 mm 4 m/s 756 mmHg 97%
08:00 0°C° 0 mm 5 m/s 756 mmHg 97%
09:00 0°C° 0 mm 5 m/s 756 mmHg 96%
10:00 0°C° 0 mm 5 m/s 756 mmHg 96%
11:00 +1°C° 0 mm 5 m/s 755 mmHg 93%
12:00 +2°C° 0 mm 6 m/s 755 mmHg 91%
13:00 +2°C° 0 mm 6 m/s 754 mmHg 88%
14:00 +2°C° 0 mm 6 m/s 754 mmHg 86%
15:00 +2°C° 0 mm 6 m/s 753 mmHg 85%
16:00 +3°C° 0 mm 6 m/s 752 mmHg 83%
17:00 +2°C° 0 mm 6 m/s 751 mmHg 82%
18:00 +2°C° 0 mm 6 m/s 750 mmHg 81%
19:00 +2°C° 0 mm 7 m/s 750 mmHg 80%
20:00 +2°C° 0.1 mm 7 m/s 749 mmHg 83%
21:00 +2°C° 0.1 mm 7 m/s 748 mmHg 86%
22:00 +1°C° 0.1 mm 8 m/s 747 mmHg 89%
23:00 +1°C° 0.3 mm 8 m/s 746 mmHg 90%
Mostrar mais

Necessitamos do seu Consentimento

A Meteoprog e os seus Fornecedores de Serviços podem armazenar e aceder a dados pessoais como cookies, identificadores do dispositivo ou outras tecnologias semelhantes existentes no seu dispositivo e processar estes dados para personalizar conteúdos e anúncios, assim como funcionalidades nas redes sociais e análise de tráfego.

  • Armazenar e/ou aceder a informações no seu dispositivo

    Os cookies, identificadores do dispositivo ou outras informações podem ser armazenados ou acedidos no seu dispositivo, para os fins acima indicados.

  • Anúncios e conteúdos personalizados, medição de anúncios e conteúdos, dados sobre o público-alvo e desenvolvimento de produtos

    Os anúncios e os conteúdos podem ser personalizados com base num perfil. Podem ser adicionados dados adicionais para uma maior personalização dos anúncios e dos conteúdos. A eficácia dos anúncios e dos conteúdos pode ser medida. Podem ser obtidas informações sobre o público que visualizou os anúncios e os conteúdos. Estes dados podem ser usados para desenvolver ou melhorar sistemas, softwares ou a experiência do utilizador.

Ao clicar em "Eu concordo”, permitirá o uso de cookies, identificadores do dispositivo e web beacons mencionados ou outras tecnologias semelhantes. As configurações do navegador do seu dispositivo podem ser alteradas.

Para certos fins, podem ser invocados interesses legítimos ao invés de consentimento. Pode ler mais informação sobre este assunto na nossa Política de Privacidade e Cookies.